Beaufort, NC

5:12 AM EST on December 18, 2017 (GMT -0500)
Smith

Weather History for KMRH - June, 2013

Change the Weather History Date:

Tuesday, June 25, 2013

  Actual Average Record
Temperature  
Mean Temperature 78 °F -  
Max Temperature 84 °F 85 °F 97 °F (1948)
Min Temperature 75 °F 68 °F 54 °F (1980)
Cooling Degree Days 14    
Growing Degree Days 28 (Base 50)    
Moisture  
Dew Point 75 °F    
Average Humidity 85    
Maximum Humidity 94    
Minimum Humidity 79    
Precipitation  
Precipitation 0.04 in - - ()
Sea Level Pressure  
Sea Level Pressure 30.12 in    
Wind  
Wind Speed 13 mph (SW)    
Max Wind Speed 20 mph    
Max Gust Speed 25 mph    
Visibility 10 miles    
Events      
Averages and records for this station are not official NWS values.
T = Trace of Precipitation, MM = Missing Value Source: NWS Daily Summary

Daily Weather History Graph

Daily Weather History Graph

Search for Another Location

Airport or City:

Trip Planner

Search our weather history database for the weather conditions in past years. The results will help you decide how hot, cold, wet, or windy it might be!

Date:

Astronomy

Jun. 25, 2013 Rise Set
Actual Time 5:54 AM EDT 8:23 PM EDT
Civil Twilight 5:25 AM EDT 8:53 PM EDT
Nautical Twilight 4:48 AM EDT 9:29 PM EDT
Astronomical Twilight 4:08 AM EDT 10:10 PM EDT
Moon 10:15 PM EDT (6/25) 8:25 AM EDT (6/25)
Length of Visible Light 15h 27m
Length of Day
14h 28m
Waning Gibbous, 93% of the Moon is Illuminated
Jun 25
Waning Gibbous
Jun 30
Last Quarter
Jul 8
New
Jul 15
First Quarter
Jul 22
Full

Hourly Weather History & Observations

Time (EDT) Temp. Heat Index Dew Point Humidity Pressure Visibility Wind Dir Wind Speed Gust Speed Precip Events Conditions
12:58 AM 78.1 °F - 75.0 °F 90% 30.17 in 10.0 mi WSW 10.4 mph - N/A   Clear
1:58 AM 78.1 °F - 75.0 °F 90% 30.16 in 10.0 mi SW 11.5 mph 19.6 mph N/A   Clear
2:58 AM 78.1 °F - 75.0 °F 90% 30.14 in 10.0 mi SW 10.4 mph - N/A   Clear
3:58 AM 77.0 °F - 75.0 °F 94% 30.15 in 10.0 mi WSW 8.1 mph - N/A   Clear
4:58 AM 78.1 °F - 75.0 °F 90% 30.15 in 10.0 mi SW 9.2 mph - N/A   Clear
5:58 AM 78.1 °F - 75.0 °F 90% 30.16 in 10.0 mi SW 11.5 mph - N/A   Scattered Clouds
6:58 AM 78.1 °F - 75.0 °F 90% 30.15 in 9.0 mi SW 10.4 mph - N/A   Partly Cloudy
7:58 AM 78.1 °F - 75.0 °F 90% 30.15 in 9.0 mi WSW 10.4 mph - N/A   Partly Cloudy
8:58 AM 80.1 °F 85.4 °F 75.9 °F 87% 30.15 in 10.0 mi SW 16.1 mph - N/A   Clear
9:22 AM 80.6 °F 86.2 °F 75.2 °F 84% 30.14 in 9.0 mi SW 13.8 mph - N/A   Mostly Cloudy
9:43 AM 80.6 °F 86.2 °F 75.2 °F 84% 30.14 in 10.0 mi SW 11.5 mph - N/A   Overcast
9:58 AM 81.0 °F 87.3 °F 75.9 °F 85% 30.14 in 10.0 mi SW 11.5 mph - N/A   Overcast
10:27 AM 80.6 °F 86.2 °F 75.2 °F 84% 30.14 in 10.0 mi SW 16.1 mph - N/A   Mostly Cloudy
10:44 AM 80.6 °F 86.2 °F 75.2 °F 84% 30.13 in 10.0 mi SW 16.1 mph - N/A   Mostly Cloudy
10:58 AM 81.0 °F 87.3 °F 75.9 °F 85% 30.13 in 10.0 mi SW 16.1 mph - N/A   Mostly Cloudy
11:58 AM 82.0 °F 89.4 °F 75.9 °F 82% 30.14 in 10.0 mi SW 19.6 mph 24.2 mph N/A   Mostly Cloudy
12:17 PM 82.4 °F 89.5 °F 75.2 °F 79% 30.13 in 10.0 mi SW 18.4 mph - N/A   Scattered Clouds
12:58 PM 82.9 °F 90.8 °F 75.9 °F 79% 30.13 in 10.0 mi SW 18.4 mph 24.2 mph N/A   Partly Cloudy
1:58 PM 82.0 °F 88.6 °F 75.0 °F 79% 30.12 in 10.0 mi SW 18.4 mph 23.0 mph N/A   Clear
2:58 PM 82.9 °F 91.8 °F 77.0 °F 82% 30.10 in 10.0 mi SW 19.6 mph 24.2 mph N/A   Clear
3:58 PM 82.9 °F 91.8 °F 77.0 °F 82% 30.08 in 10.0 mi SW 16.1 mph 25.3 mph N/A   Clear
4:58 PM 82.0 °F 88.6 °F 75.0 °F 79% 30.07 in 10.0 mi SW 16.1 mph - N/A   Clear
5:58 PM 81.0 °F 86.2 °F 73.9 °F 79% 30.06 in 10.0 mi SW 15.0 mph - N/A   Clear
6:58 PM 80.1 °F 84.5 °F 73.9 °F 81% 30.08 in 10.0 mi SW 16.1 mph - N/A   Partly Cloudy
7:58 PM 80.1 °F 85.1 °F 75.0 °F 85% 30.10 in 10.0 mi WSW 10.4 mph 20.7 mph N/A   Mostly Cloudy
8:58 PM 75.0 °F - 71.1 °F 87% 30.04 in 10.0 mi SW 8.1 mph - 0.04 in   Clear
9:58 PM 75.0 °F - 71.1 °F 87% 30.04 in 10.0 mi SW 15.0 mph - N/A   Clear
10:58 PM 77.0 °F - 72.0 °F 84% 30.06 in 10.0 mi SW 15.0 mph - N/A   Clear
11:58 PM 77.0 °F - 73.9 °F 90% 30.08 in 10.0 mi SW 10.4 mph - N/A   Clear